THOR ABLESTAR DEB, 144

Orbit data source: Space-Track

THOR ABLESTAR DEB, 144 is space debris in LEO originally from a launch on Thu, 29 Jun 1961 UTC launched from the Air Force Eastern Test Range (AFETR). Debris objects in space refer to the collection of defunct objects orbiting the Earth. Examples of debris include non-operational satellites, rocket bodies, and fragments generated from explosions, collisions, or faulty payload assembly.

Loading next visibility...
Identifier
144, 1961-015AE
Orbit
LEO
Country
Flag of USUS
Related business
Manufacturer
Unknown
Mission
Spacecraft
Bus & Motor
Unknown
Mass
Unknown
Launch date (UTC)
1961-06-29 (64 years ago)
Launch vehicle
Unknown
Launch site
Air Force Eastern Test Range (AFETR)
Object type
Payload
Rocket body
Debris
Shape & HBR
Unknown shape, 0.2 m
Radar Cross Section
Small (<0.1 m²)

Expand to show TLE details & history
Last TLE update: 13 hours ago

TLE from 13 hours ago
0 THOR ABLESTAR DEB
1 00144U 61015AE  25350.76005733  .00000292  00000-0  29082-3 0  9995
2 00144  66.4988 119.5118 0035719 121.3285 239.1296 13.91562458259265
Epoch: 2025-12-16T18:14Z
TLE epoch observation values (Epoch: 2025-12-16T18:14:28.953Z)
Latitude
-0.00003°
Longitude
120.2515°
Altitude
938.665 km
Speed
7.376 km/s
True Right ascension
07h 58m 02s
True Declination
0° 00' 00"
Sunlit
Object was in full shadow at epoch
Visualization orbit readout
Latitude
Unknown
Longitude
Unknown
Altitude
Unknown
Speed
Unknown
Apparent Right ascension
Unknown
Apparent Declination
Unknown
Sunlit
N/A
Visualization observer readout
Local Sidereal Time
05:31:03
Azimuth
Unknown
Elevation
Unknown
Doppler factor
Unknown
Orbital elements
Apogee altitude
947.662 km
Perigee altitude
895.514 km
Semi-major axis
7,299.725 km
Eccentricity
0.00357
Inclination
66.4988°
RAAN
119.5118°
Arg. of periapsis
121.3285°
True anomaly
238.77908°
Mean anomaly
239.1296°
Eccentric anomaly
238.95426°
Mean motion
3.48003 °/min
Orbital period
103.45 mins
BSTAR
0.00029082

Documentation

Showing up to 5 results
|